Location: Brede
(50.9167°N, 0.6000°E)
Time: 19:07:03
(UTC+00:00)

SL-16 R/B - Pass Details

Date: 08 August 2020
Orbit: 841 x 849 km, 71.0° (Epoch: 23 September)

Event Time Altitude Azimuth Distance (km) Brightness Sun altitude
Rises 01:43:35 0° 330° (NNW) 3,425 5.8 -19.5°
Reaches altitude 10° 01:46:03 10° 330° (NNW) 2,486 5.1 -19.4°
Maximum altitude 01:51:47 88° 61° (ENE) 857 2.2 -19.0°
Enters shadow 01:57:23 10° 151° (SSE) 2,437 4.3 -18.5°
